Биг-Сур

США     35°58′17″N   121°27′10″W
темп.,
°C
ветер,
м/с
пор.,
м/с
влажн.,
%
обл.,
%
осадки,
мм/ч
давл.,
гПа
погр.,
м
19 апреля, пн
пн1923:00+15св22360 0.0 101920
02:00+14всв22392 0.0 101915
05:00+13св22393 0.0 101914
08:00+14сз22465 0.0 101936
11:00+17зсз33485 0.0 1019470
14:00+16зсз45559 0.0 1018396
17:00+16зсз35555 0.0 1016221
20:00+14ссз44587 0.0 101548
20 апреля, вт
вт2023:00+13ссв224746 0.0 101630
02:00+12с22540 0.0 101537
05:00+11с22545 0.0 101538
08:00+13сз11524 0.0 101464
11:00+14зсз556374 0.0 1014307
14:00+13зсз67662 0.0 1013407
17:00+14зсз89591 0.0 1011361
20:00+10сз56792 0.0 1011145
21 апреля, ср
ср2123:00+8ссз34841 0.0 1012116
02:00+8ссз12885 0.0 101284
05:00+8вюв018810 0.0 101179
08:00+9юв018231 0.0 1012196
11:00+12з437548 0.0 1013348
14:00+12з447854 0.0 1013383
17:00+11з338233 0.0 1011222
20:00+8с22925 0.0 1011107
22 апреля, чт
чт2223:00+8з229224 0.0 1013180
02:00+7зсз119134 0.0 1013170
05:00+7юв119036 0.0 1013176
08:00+9ю108019 0.0 1014133
11:00+12юз326838 0.0 1015241
14:00+11зюз227254 0.0 1015344
17:00+11з23739 0.0 1014196
20:00+8сз239312 0.0 1014132
23 апреля, пт
пт2323:00+9сз228816 0.0 101591
02:00+8зсз128515 0.0 101588
05:00+8зсз2283100 0.0 1015159
08:00+10зюз1171100 0.0 1015153
11:00+10з337747 0.0 1017310
14:00+11з237948 0.0 1016279
17:00+10зсз248534 0.0 1016241
20:00+8зсз359420 0.0 1017217